Flag for U.S.A. Weather past 2 weeks in Cheyenne, Wyoming, U.S.A.

Now
4 °F

Passing clouds.


Feels Like: -8 °F
Forecast: 6 / 20 °F
Wind: 7 mph from Southwest

Location: Cheyenne Airport

Current Time: Feb 28, 2015 at 12:12:42 AM

Latest Report: Feb 27, 2015 at 11:00 PM


Visibility: 10 mi

Pressure: 29.82 "Hg

Humidity: 88%

Dew point: 1 °F

Location of CheyenneLocation

Historic Weather in Cheyenne — Graph

°F

Cheyenne temperature yesterday

Maximum temperature yesterday: 12 °F (at 12:53 PM)
Minimum temperature yesterday: 3 °F (at 1:53 AM)
Average temperature yesterday: 7 °F

Past Weeks' High & Low Weather Summary

 TemperatureHumidityPressure
High58 °F (Feb 13, 2:53 PM)89% (Feb 20, 7:53 PM)30.66 "Hg (Feb 20, 7:53 PM)
Low2 °F (Feb 22, 6:53 AM)19% (Feb 19, 4:53 PM)29.70 "Hg (Feb 20, 10:53 AM)
Average25 °F63%30.14 "Hg
* Reported Feb 12 11:53 PM — Feb 27 11:00 PM, Cheyenne, Weather by CustomWeather, © 2015

Note: Actual official high and low records may vary slightly from our data, if they occured in-between our weather recording intervals... More about our weather records

Advertising

Cheyenne weather history for previous 24 hours

 ConditionsComfort  
Time TempWeatherWind HumidityBarometerVisibility
11:00 PM
Fri, Feb 27
4 °FPassing clouds.7 mph88%29.82 "Hg10 mi
10:04 PM8 °FLow clouds.16 mph83%29.84 "Hg8 mi
9:53 PM8 °FLow clouds.16 mph83%30.14 "Hg2 mi
8:53 PM10 °FLow clouds.12 mph80%30.13 "Hg2 mi
7:53 PM11 °FLight snow. Overcast.14 mph81%30.14 "Hg2 mi
6:53 PM11 °FLight snow. Overcast.15 mph77%30.14 "Hg4 mi
5:53 PM11 °FOvercast.15 mph73%30.13 "Hg7 mi
4:53 PM11 °FOvercast.17 mph73%30.13 "Hg9 mi
3:53 PM12 °FLight snow. Overcast.17 mph73%30.12 "Hg4 mi
2:53 PM12 °FLight snow. Overcast.15 mph70%30.13 "Hg5 mi
1:53 PM12 °FLight snow. Overcast.17 mph73%30.13 "Hg4 mi
12:53 PM12 °FOvercast.20 mph70%30.15 "Hg6 mi
11:53 AM11 °FOvercast.14 mph70%30.17 "Hg6 mi
10:53 AM8 °FLight snow. Overcast.18 mph76%30.21 "Hg2 mi
9:53 AM6 °FLight snow. Mostly cloudy.16 mph79%30.22 "Hg2 mi
8:53 AM5 °FIce fog.13 mph83%30.24 "Hg1 mi
7:53 AM3 °FIce fog.13 mph87%30.25 "Hg2 mi
6:53 AM3 °FIce fog.12 mph84%30.25 "Hg1 mi
6:03 AM3 °FLight snow. Ice fog.15 mph84%29.95 "Hg1 mi
5:53 AM3 °FIce fog.15 mph84%30.25 "Hg2 mi
4:53 AM3 °FMostly cloudy.10 mph79%30.25 "Hg4 mi
3:53 AM3 °FIce fog.13 mph84%30.26 "Hg5 mi
2:53 AM3 °FMostly cloudy.10 mph79%30.27 "Hg5 mi
1:53 AM3 °FMostly cloudy.10 mph79%30.29 "Hg7 mi
12:53 AM4 °FLight snow. Ice fog.15 mph84%30.30 "Hg1 mi
12:04 AM6 °FLight snow. Ice fog.15 mph83%30.03 "Hg2 mi
Weather by CustomWeather, © 2015

See weather overviewHow to use our weather pages